Back to catalog

THOR ABLESTAR DEB

AliveLEO
NORAD 254·DEBRIS·🇺🇸 United States

Launched Jun 29, 1961 from Cape Canaveral Space Force Station

Loading…

Next Passes (next 24 hours)

TLE

FreshSource: Space-Track

Epoch: Sep 13, 2026, 12:43 UTC

1 00254U 61015CF  26256.53054480  .00000984  00000-0  25575-3 0  9992
2 00254  66.7723  39.8057 0058088   2.9985 357.1462 14.53056338386517

Track THOR ABLESTAR DEB in real time with AllMySat

Download on the App Store